Charlottetown, Prince Edward Island

9:20 AM AST on February 12, 2016 (GMT -0400)
Charlottetown

Weather History for CYYG - August, 2013

Change the Weather History Date:

Friday, August 23, 2013

  Actual Average Record
Temperature  
Mean Temperature 64 °F -  
Max Temperature 69 °F 66 °F 82 °F (2001)
Min Temperature 53 °F 50 °F 42 °F (2007)
Degree Days  
Heating Degree Days 1    
Growing Degree Days 14 (Base 50)    
Moisture  
Dew Point 60 °F    
Average Humidity 84    
Maximum Humidity 94    
Minimum Humidity 72    
Precipitation  
Precipitation 0.08 in 0.12 in - ()
Sea Level Pressure  
Sea Level Pressure 29.80 in    
Wind  
Wind Speed 9 mph ()    
Max Wind Speed 15 mph    
Max Gust Speed 25 mph    
Visibility 12.9 miles    
Events Rain    
Averages and records for this station are not official NWS values.
T = Trace of Precipitation, MM = Missing Value Source: Averaged Metar Reports

Daily Weather History Graph

Daily Weather History Graph

Search for Another Location

Airport or City:

Trip Planner

Search our weather history database for the weather conditions in past years. The results will help you decide how hot, cold, wet, or windy it might be!

Date:

Astronomy

Aug. 23, 2013 Rise Set
Actual Time 6:21 AM ADT 8:07 PM ADT
Civil Twilight 5:49 AM ADT 8:39 PM ADT
Nautical Twilight 5:10 AM ADT 9:18 PM ADT
Astronomical Twilight 4:28 AM ADT 10:00 PM ADT
Moon 9:08 PM ADT (8/23) 9:25 AM ADT (8/23)
Length of Visible Light 14h 49m
Length of Day
13h 45m
Waning Gibbous, 92% of the Moon is Illuminated
Aug 23
Waning Gibbous
Aug 28
Last Quarter
Sep 5
New
Sep 12
First Quarter
Sep 19
Full

Hourly Weather History & Observations

Time (ADT) Temp. Dew Point Humidity Pressure Visibility Wind Dir Wind Speed Gust Speed Precip Events Conditions
12:00 AM 71.6 °F 62.6 °F 73% 29.77 in 15.0 mi SSW 9.2 mph - N/A   Mostly Cloudy
1:00 AM 69.8 °F 62.6 °F 78% 29.75 in 15.0 mi SSW 10.4 mph - N/A   Mostly Cloudy
2:00 AM 68.0 °F 62.6 °F 83% 29.73 in 15.0 mi South 6.9 mph - N/A   Mostly Cloudy
3:00 AM 69 °F 63 °F 76% 29.72 in 12 mi SSW 11.5 mph - -   Partly Cloudy
3:00 AM 68.0 °F 62.6 °F 83% 29.72 in 12.0 mi SSW 10.4 mph - N/A   Mostly Cloudy
4:00 AM 68.0 °F 62.6 °F 83% 29.70 in 15.0 mi SSW 10.4 mph - N/A   Mostly Cloudy
5:00 AM 66.2 °F 62.6 °F 88% 29.68 in 12.0 mi South 10.4 mph - N/A   Scattered Clouds
5:26 AM 68.0 °F 62.6 °F 83% 29.68 in 12.0 mi South 9.2 mph - N/A   Mostly Cloudy
6:00 AM 68.0 °F 64.4 °F 88% 29.67 in 10.0 mi SSW 11.5 mph 21.9 mph N/A   Overcast
6:21 AM 68.0 °F 64.4 °F 88% 29.70 in 10.0 mi WSW 11.5 mph 17.3 mph N/A   Overcast
6:31 AM 68.0 °F 64.4 °F 88% 29.70 in 10.0 mi WSW 13.8 mph 25.3 mph N/A Rain Light Rain Showers
6:39 AM 68.0 °F 64.4 °F 88% 29.70 in 2.5 mi WSW 13.8 mph 24.2 mph N/A Rain Light Rain Showers
6:47 AM 68.0 °F 66.2 °F 94% 29.70 in 2.5 mi WSW 12.7 mph 24.2 mph N/A Rain Heavy Rain Showers
6:54 AM 66.2 °F 64.4 °F 94% 29.70 in 4.0 mi WSW 15.0 mph 21.9 mph N/A Rain Light Rain Showers
7:00 AM 66.2 °F 64.4 °F 94% 29.71 in 4.0 mi WSW 11.5 mph 21.9 mph N/A Rain Light Rain Showers
7:20 AM 66.2 °F 64.4 °F 94% 29.70 in 8.0 mi West 5.8 mph - N/A Rain Light Rain Showers
7:27 AM 64.4 °F 60.8 °F 88% 29.71 in 15.0 mi NW 11.5 mph - N/A   Overcast
8:00 AM 62.6 °F 60.8 °F 94% 29.72 in 15.0 mi NNW 10.4 mph - N/A   Overcast
9:00 AM 63 °F 59 °F 84% 29.74 in 15 mi NNW 8.1 mph - -   Partly Cloudy
9:00 AM 62.6 °F 59.0 °F 88% 29.73 in 15.0 mi NNW 9.2 mph - N/A   Overcast
10:00 AM 62.6 °F 60.8 °F 94% 29.77 in 15.0 mi NW 5.8 mph - N/A   Overcast
10:12 AM 62.6 °F 60.8 °F 94% 29.78 in 15.0 mi NW 6.9 mph - N/A Rain Light Rain Showers
11:00 AM 62.6 °F 59.0 °F 88% 29.79 in 15.0 mi NNW 6.9 mph - N/A Rain Light Rain Showers
11:56 AM 64.4 °F 59.0 °F 83% 29.82 in 15.0 mi NNW 11.5 mph 19.6 mph N/A   Overcast
12:00 PM 64.4 °F 59.0 °F 83% 29.82 in 15.0 mi NW 9.2 mph 20.7 mph N/A   Overcast
1:00 PM 66.2 °F 59.0 °F 78% 29.84 in 15.0 mi North 12.7 mph 19.6 mph N/A   Mostly Cloudy
2:00 PM 66.2 °F 57.2 °F 73% 29.86 in 15.0 mi North 13.8 mph - N/A   Mostly Cloudy
3:00 PM 64 °F 58 °F 74% 29.88 in 15 mi North 11.5 mph - -   Partly Cloudy
3:00 PM 64.4 °F 57.2 °F 77% 29.88 in 15.0 mi North 10.4 mph 18.4 mph N/A   Overcast
3:39 PM 62.6 °F 57.2 °F 82% 29.89 in 15.0 mi NNW 12.7 mph 19.6 mph N/A Rain Light Rain Showers
4:00 PM 62.6 °F 57.2 °F 82% 29.90 in 15.0 mi North 11.5 mph 19.6 mph N/A   Mostly Cloudy
5:00 PM 64.4 °F 57.2 °F 77% 29.90 in 15.0 mi NNE 15.0 mph - N/A   Mostly Cloudy
6:00 PM 62.6 °F 55.4 °F 77% 29.93 in 15.0 mi NNW 11.5 mph - N/A   Mostly Cloudy
7:00 PM 62.6 °F 53.6 °F 72% 29.94 in 15.0 mi North 10.4 mph - N/A   Mostly Cloudy
8:00 PM 60.8 °F 51.8 °F 72% 29.97 in 15.0 mi North 6.9 mph - N/A   Mostly Cloudy
9:00 PM 60.8 °F 51.8 °F 72% 30.00 in 15.0 mi North 2.3 mph - N/A   Mostly Cloudy
10:00 PM 59.0 °F 53.6 °F 82% 30.02 in 15.0 mi NNW 3.5 mph - N/A   Mostly Cloudy
11:00 PM 53.6 °F 51.8 °F 94% 30.03 in 15.0 mi WNW 3.5 mph - N/A   Scattered Clouds